This is the latest recevied weather packets stored in our database for station/object WB0OCV. If no packets are shown the sender has not sent any weather packets the latest 10 day(s).
| Time | Temp. | Humidity | Pressure | Rain* | Wind** | Luminosity | Snow |
|---|---|---|---|---|---|---|---|
| 1778146822 | 11.67° C | 99% | 1008.5 hPa | 3.56 mm | - | 1 W/m² | - |
| 1778146520 | 11.67° C | 99% | 1008.2 hPa | 3.05 mm | - | 1 W/m² | - |
| 1778146218 | 11.67° C | 99% | 1008.7 hPa | 4.32 mm | - | 0 W/m² | - |
| 1778145915 | 11.67° C | 99% | 1008.8 hPa | 10.67 mm | - | 0 W/m² | - |
| 1778145611 | 11.67° C | 99% | 1009 hPa | 6.1 mm | - | 0 W/m² | - |
| 1778145308 | 11.11° C | 99% | 1008.4 hPa | 3.05 mm | - | 0 W/m² | - |
| 1778145004 | 11.11° C | 99% | 1008.3 hPa | 4.83 mm | - | 0 W/m² | - |
| 1778144700 | 11.11° C | 99% | 1008.4 hPa | 4.83 mm | - | 0 W/m² | - |
| 1778144396 | 11.11° C | 99% | 1008.9 hPa | 0 mm | - | 0 W/m² | - |
| 1778144094 | 11.11° C | 99% | 1008.7 hPa | 0 mm | - | 0 W/m² | - |
| 1778143790 | 11.11° C | 99% | 1008.8 hPa | 1.27 mm | - | 0 W/m² | - |
| 1778143487 | 11.11° C | 99% | 1008.9 hPa | 4.32 mm | - | 0 W/m² | - |
| 1778143184 | 11.11° C | 99% | 1009 hPa | 4.83 mm | - | 0 W/m² | - |
| 1778142881 | 11.11° C | 99% | 1009.4 hPa | 0 mm | - | 0 W/m² | - |
| 1778142577 | 11.67° C | 99% | 1009.2 hPa | 0 mm | - | 0 W/m² | - |
| 1778142273 | 11.11° C | 99% | 1009.2 hPa | 0 mm | - | 0 W/m² | - |
| 1778141970 | 11.11° C | 99% | 1008.7 hPa | 0 mm | - | 0 W/m² | - |
| 1778141666 | 11.67° C | 99% | 1008.2 hPa | 0 mm | - | 0 W/m² | - |
| 1778141363 | 11.11° C | 99% | 1008 hPa | 0 mm | - | 0 W/m² | - |
| 1778141059 | 11.11° C | 99% | 1007.5 hPa | 0 mm | - | 0 W/m² | - |
| 1778140754 | 11.11° C | 99% | 1007.6 hPa | 0 mm | - | 0 W/m² | - |
| 1778140451 | 11.67° C | 99% | 1007.9 hPa | 0 mm | - | 0 W/m² | - |
| 1778140148 | 11.67° C | 99% | 1008.4 hPa | 0 mm | - | 0 W/m² | - |
| 1778139844 | 11.67° C | 99% | 1008.1 hPa | 0 mm | - | 0 W/m² | - |
| 1778139543 | 11.67° C | 99% | 1007.9 hPa | 0 mm | - | 0 W/m² | - |
* Rain latest hour (hover to see other rain measurements)
** Current wind speed in m/s (hover to see current wind gust speed)